Wind_Speed
4 4 5 4 4 4 4 4 4 3 3 2 2 1 1 1 1 1 1 1 1 1 1 1 1 1 1 2 2 2 2 2 2 2 2 2 2 2 3 3 4 4 3 4 4 4 5 5 6
4 5 5 5 5 5 4 4 4 3 3 2 2 1 1 1 1 1 1 1 1 1 1 2 1 1 1 2 2 2 2 2 2 2 2 2 2 3 3 3 4 3 3 4 4 4 5 5 6
4 5 5 5 5 4 4 4 3 3 3 3 2 1 1 1 2 2 2 1 1 1 1 2 1 1 2 2 2 2 2 3 2 2 2 2 2 3 3 3 4 4 4 5 6 5 5 5 6
5 6 5 5 5 4 4 4 4 4 4 3 2 2 2 2 2 2 1 1 1 1 1 2 2 2 2 2 2 2 3 3 3 2 2 3 2 2 3 4 4 4 4 5 6 5 5 6 6
6 6 6 5 4 4 4 4 4 4 4 4 2 2 2 2 2 2 1 2 1 1 2 2 2 3 3 3 3 3 3 3 3 2 2 3 3 3 3 4 4 4 4 5 5 6 6 6 6
6 6 6 5 4 4 4 4 4 4 5 4 3 3 3 2 2 1 1 2 2 2 2 2 2 3 3 3 3 3 4 3 3 3 3 3 4 4 3 4 4 5 5 5 5 5 6 6 6
6 5 5 5 4 4 4 4 4 5 4 4 4 3 3 2 1 1 1 1 2 2 2 2 2 3 3 4 3 3 4 4 3 3 4 4 4 4 4 4 5 5 5 5 5 6 6 6 6
6 5 5 4 4 4 4 4 5 5 5 5 4 4 3 2 2 2 2 2 2 2 3 3 3 3 4 4 3 3 4 4 4 4 4 4 4 4 4 4 4 6 6 6 6 6 6 6 7
6 5 5 4 4 4 4 4 4 5 5 5 5 4 4 3 3 3 3 3 3 3 3 4 3 4 4 3 3 4 4 4 4 5 5 5 4 5 5 5 5 6 6 6 6 6 6 7 7
5 5 4 4 4 4 4 4 5 5 5 6 5 5 4 4 3 3 3 3 3 3 4 4 4 4 4 3 3 4 4 4 4 4 4 5 5 5 5 5 5 6 6 6 6 7 6 7 7
5 5 4 4 4 4 4 5 5 5 5 6 6 5 5 4 4 3 3 3 3 4 4 4 4 4 3 3 3 3 3 3 3 3 4 4 5 5 5 5 5 5 6 6 6 6 6 6 7
4 5 4 4 4 4 5 5 5 5 5 5 5 5 5 4 4 3 3 3 4 4 4 4 4 4 3 4 3 3 4 4 3 3 3 4 4 4 4 5 4 4 4 5 5 5 5 6 6
4 4 4 4 4 4 4 4 5 5 6 5 5 5 5 4 4 4 3 3 4 3 3 4 4 4 3 3 3 3 4 4 4 3 3 4 4 3 3 4 4 4 4 5 5 5 5 5 6
4 4 4 5 5 5 4 5 5 5 6 6 5 5 4 5 5 4 3 3 3 3 2 3 3 4 3 3 3 3 3 3 3 3 3 3 3 3 3 3 3 4 4 4 4 4 5 6 5
4 4 4 5 5 5 5 5 6 6 6 6 6 6 5 5 5 4 3 3 3 3 3 3 3 3 3 3 4 3 3 3 3 3 2 2 2 2 2 2 3 3 3 3 3 3 4 5 5
4 4 4 4 5 5 5 6 6 6 6 6 5 5 5 5 4 3 3 3 3 3 3 3 3 3 4 4 4 4 4 4 3 3 3 2 2 2 2 2 2 2 2 3 3 3 3 4 4
4 4 4 4 5 5 6 6 6 6 6 6 6 6 5 5 4 4 4 3 3 4 4 4 4 4 4 4 5 4 4 4 4 3 2 3 2 2 3 2 2 1 2 2 2 3 3 3 3
4 4 4 4 4 5 5 7 7 6 6 7 7 7 6 6 6 5 4 4 4 4 4 4 4 4 4 4 4 4 4 4 4 3 2 2 2 2 3 1 1 2 1 1 2 2 3 3 2
5 4 4 4 4 4 5 6 7 7 7 7 7 7 6 6 6 6 5 4 4 4 5 5 5 5 5 4 4 4 4 5 5 4 3 3 3 2 2 1 1 1 1 1 2 2 3 3 2
5 5 4 4 4 4 5 6 7 7 7 7 7 6 6 6 6 6 5 5 5 5 5 5 5 5 5 5 5 5 4 4 5 5 4 4 4 3 2 2 2 1 1 2 1 2 3 3 3
5 5 4 4 4 4 5 5 7 7 7 6 6 6 6 6 6 6 5 5 5 5 5 5 5 5 5 6 5 5 5 4 5 5 5 5 5 4 3 3 2 2 2 2 3 3 3 3 3
5 5 4 3 3 4 5 5 6 7 6 6 6 6 6 6 6 5 5 6 6 6 6 6 5 5 5 5 4 5 5 5 5 5 5 5 5 4 3 3 3 3 3 3 3 3 3 3 3
6 5 5 4 4 5 6 6 6 7 6 6 6 7 6 6 6 6 6 6 6 6 6 6 5 5 5 5 4 4 5 4 5 4 4 4 4 4 4 4 4 4 3 3 3 4 4 4 3
6 5 5 5 5 5 6 6 6 7 7 6 7 7 6 6 6 6 6 6 6 6 6 5 5 5 5 5 5 5 5 5 5 4 4 4 4 5 4 4 4 4 4 4 4 4 4 4 4
6 6 6 6 6 6 6 7 7 8 7 7 7 7 6 6 6 6 7 7 6 6 6 6 6 5 6 6 5 5 5 5 5 4 4 4 4 4 5 4 4 4 5 4 5 5 5 5 5
7 6 7 7 7 8 8 8 8 8 8 8 8 7 7 7 7 7 7 7 7 7 6 6 6 6 6 6 5 5 5 5 5 5 4 5 5 5 5 5 4 5 5 5 5 5 5 5 5
8 7 8 8 8 9 9 9 8 8 8 8 8 8 8 7 7 8 8 8 7 7 7 7 6 6 6 6 5 5 5 5 5 5 5 5 5 5 5 5 5 5 5 5 5 5 5 6 6
9 9 9 8 9 9 9 9 9 8 8 8 8 8 7 7 7 8 8 8 8 7 8 7 7 6 6 6 6 6 6 5 5 5 5 5 5 5 4 5 5 6 6 5 5 5 5 6 6
10 10 10 10 10 9 9 9 9 9 9 8 8 8 8 8 8 8 8 8 8 8 8 8 7 6 6 6 7 7 6 6 6 6 6 5 5 5 4 4 5 5 6 5 5 6 6 6 7
11 11 11 10 10 10 10 10 9 9 9 9 9 9 9 9 9 9 8 9 9 9 9 8 7 7 7 7 7 7 7 7 7 6 6 6 6 5 5 5 5 5 5 6 6 7 7 7 7
Wind_Direction
21 19 16 11 11 7 349 336 337 341 333 323 316 299 273 263 253 248 253 260 249 227 213 203 203 205 209 210 205 202 201 200 196 190 162 163 172 174 187 197 191 194 200 202 204 206 208 210 214
14 13 10 4 3 353 342 340 344 347 335 329 319 310 263 243 243 250 265 276 254 248 228 213 203 209 218 220 212 219 216 217 208 205 191 178 177 186 191 198 196 199 209 215 207 207 211 214 219
6 5 4 359 360 353 348 347 346 351 351 353 343 327 291 265 273 275 272 284 283 253 234 231 227 229 231 238 228 222 221 219 216 223 219 204 187 201 209 205 206 209 214 224 223 221 220 221 222
359 1 357 355 353 351 347 345 353 355 348 343 335 321 302 287 276 278 279 283 282 272 264 250 244 243 250 251 239 233 232 228 221 223 229 225 207 212 219 224 222 223 225 227 227 230 232 228 229
353 356 357 354 351 343 345 345 344 348 347 342 328 315 304 295 273 263 261 272 280 279 287 265 257 248 261 255 249 253 244 235 227 228 232 235 229 222 218 224 224 229 235 238 235 236 236 233 230
354 356 355 347 344 340 345 347 346 353 349 345 335 320 315 300 288 267 253 261 276 275 281 265 257 255 256 254 254 251 241 240 232 228 231 233 236 236 229 224 226 233 239 242 245 242 239 234 229
349 349 348 343 344 341 346 342 344 351 349 344 343 331 328 299 296 283 266 280 280 279 266 269 269 264 259 256 254 249 237 234 232 234 237 242 245 244 240 235 235 238 240 239 243 242 237 236 235
342 340 342 344 345 347 344 341 342 343 340 336 333 335 332 311 300 281 278 282 284 284 272 270 280 280 276 266 253 245 241 241 242 244 247 250 250 247 249 247 237 234 238 233 238 239 234 239 240
346 344 339 336 339 345 345 334 339 342 338 336 331 328 324 315 300 287 280 272 276 282 281 275 281 290 281 264 257 253 245 242 246 250 255 258 251 250 249 245 240 234 236 233 234 235 236 243 244
351 352 343 335 331 340 342 333 335 338 338 337 331 329 327 325 314 290 280 278 273 272 280 284 278 280 275 267 261 259 251 240 248 251 255 256 250 252 251 248 243 242 242 241 239 236 238 244 244
353 353 346 338 340 340 339 339 338 336 335 334 332 330 330 328 319 309 305 287 285 282 279 279 274 271 269 266 267 260 268 263 263 264 260 256 252 252 254 251 242 240 241 238 240 243 246 248 247
354 356 354 348 347 346 342 338 334 331 328 326 326 324 324 325 328 322 324 313 300 290 280 274 275 274 267 264 270 268 273 275 273 279 271 268 262 254 250 243 229 229 235 234 235 242 249 251 252
346 351 352 348 342 340 341 338 332 327 324 322 321 320 313 318 323 318 314 320 313 300 283 275 272 274 276 274 265 264 273 275 280 284 280 270 265 250 238 237 230 233 245 249 245 248 252 255 254
343 345 347 349 345 342 344 342 335 329 326 322 319 317 308 309 306 308 301 308 311 317 308 295 278 268 275 280 269 260 265 273 279 285 286 269 264 250 241 235 237 246 259 257 261 264 264 259 258
334 337 341 344 341 342 341 338 332 326 321 318 315 313 314 302 298 299 303 304 309 314 312 303 289 274 274 276 274 277 268 271 275 293 290 284 260 247 256 259 249 254 263 270 269 263 273 265 262
339 334 336 337 337 337 338 331 328 325 321 319 313 307 304 300 299 300 306 308 312 312 311 302 290 283 275 271 271 270 272 268 268 284 289 276 258 250 250 258 256 250 256 263 269 266 279 278 273
336 330 325 322 329 332 330 325 326 324 320 318 310 298 293 294 293 301 304 301 305 306 303 298 289 289 279 272 268 263 268 268 264 272 275 269 267 262 262 261 259 278 270 264 274 277 280 293 288
325 322 318 313 317 322 323 320 324 322 316 311 303 296 289 288 286 294 301 299 298 298 296 294 291 285 277 272 267 270 266 260 254 255 252 260 266 264 267 264 251 256 287 286 289 293 296 298 289
320 315 313 311 312 317 319 319 321 323 319 313 305 295 290 285 284 285 289 293 295 297 298 294 289 280 270 261 261 267 261 252 246 250 246 251 261 265 265 286 285 280 298 324 311 321 320 318 297
318 310 310 313 319 319 318 319 318 319 318 314 311 305 298 293 296 287 279 281 296 294 291 288 285 277 272 265 260 256 265 257 245 245 251 254 257 255 264 280 274 278 291 319 311 307 315 323 321
315 308 305 311 319 321 321 320 317 319 317 315 311 309 305 302 294 290 281 280 287 292 291 288 287 273 269 273 263 250 258 263 254 250 252 252 250 251 261 269 267 266 281 301 311 302 309 307 311
308 307 303 310 311 316 317 316 313 317 316 312 309 309 308 300 290 284 277 277 281 285 287 290 286 274 271 273 260 251 254 258 256 256 253 248 245 246 254 258 262 270 271 284 299 310 305 305 304
300 303 302 302 305 310 314 313 311 312 311 308 306 306 304 298 290 283 275 275 279 283 282 285 281 274 275 270 255 255 253 253 254 253 249 244 240 244 252 255 259 266 270 280 289 302 303 294 290
298 299 302 301 305 309 310 311 309 305 304 304 303 303 299 296 291 288 279 277 280 280 277 279 278 277 276 271 260 263 255 251 249 248 244 242 243 246 249 253 256 261 268 279 288 293 294 292 288
289 293 296 298 298 305 309 310 307 302 302 301 301 300 294 292 287 283 279 278 279 278 278 280 275 276 274 268 263 263 253 252 250 252 252 249 248 244 241 248 255 260 265 275 287 292 294 291 290
279 281 280 285 290 297 305 307 304 302 302 300 299 296 287 285 283 280 280 277 276 275 271 276 271 272 268 264 262 256 251 252 253 254 256 257 254 249 245 244 249 259 268 275 282 288 290 291 294
274 274 280 284 290 293 297 303 302 302 302 301 300 297 289 284 284 283 280 278 277 272 266 269 270 268 261 261 263 259 258 256 257 252 252 259 259 253 248 240 247 256 270 282 287 289 289 288 287
272 275 277 283 289 293 297 298 302 305 302 300 299 296 289 287 285 285 282 278 274 270 267 266 266 270 268 261 256 257 261 262 260 256 255 256 253 248 246 253 257 261 270 276 281 288 292 291 286
270 271 276 281 284 286 288 293 299 302 302 299 295 293 289 285 284 286 282 277 273 269 268 266 262 261 266 262 258 257 260 261 261 259 258 254 249 244 249 265 268 266 268 273 279 288 294 294 290
266 269 272 275 280 283 286 288 294 298 301 297 292 289 288 286 283 284 282 277 271 270 270 267 264 263 265 261 254 256 261 262 261 262 258 252 249 248 251 262 268 268 275 280 282 287 291 294 293
Height
5897 5896 5896 5896 5897 5895 5894 5894 5892 5891 5891 5890 5889 5888 5888 5888 5888 5889 5886 5884 5884 5884 5883 5883 5883 5883 5883 5883 5882 5882 5882 5882 5881 5881 5881 5880 5880 5880 5880 5880 5880 5880 5881 5881 5881 5881 5882 5882 5882
5896 5896 5897 5896 5896 5895 5894 5893 5892 5891 5890 5889 5888 5888 5887 5886 5886 5886 5884 5884 5884 5883 5883 5883 5882 5882 5882 5882 5882 5882 5882 5881 5881 5881 5881 5880 5880 5880 5880 5880 5880 5880 5880 5880 5880 5881 5881 5881 5881
5896 5896 5897 5896 5895 5894 5894 5892 5891 5890 5889 5888 5888 5887 5887 5886 5885 5885 5884 5884 5883 5883 5882 5882 5882 5882 5882 5881 5881 5881 5881 5881 5881 5880 5880 5880 5880 5880 5879 5879 5880 5880 5880 5880 5880 5880 5880 5880 5881
5897 5897 5897 5896 5894 5894 5893 5892 5891 5890 5889 5888 5887 5887 5886 5885 5884 5884 5883 5883 5883 5882 5882 5882 5881 5881 5881 5881 5881 5881 5881 5880 5880 5880 5880 5879 5879 5879 5879 5879 5879 5879 5879 5879 5879 5879 5879 5879 5880
5896 5896 5896 5895 5894 5893 5892 5891 5890 5889 5888 5887 5887 5886 5885 5884 5884 5883 5883 5883 5882 5882 5881 5881 5881 5880 5880 5880 5880 5880 5880 5880 5879 5879 5879 5879 5879 5879 5878 5878 5878 5878 5878 5878 5878 5878 5878 5879 5879
5896 5896 5895 5894 5893 5892 5892 5890 5890 5889 5888 5887 5886 5885 5884 5884 5883 5883 5882 5882 5882 5881 5881 5880 5880 5880 5879 5879 5879 5879 5879 5879 5879 5879 5878 5878 5878 5878 5878 5877 5877 5877 5877 5877 5877 5877 5877 5878 5878
5896 5895 5894 5894 5893 5892 5891 5890 5889 5888 5887 5887 5886 5885 5884 5883 5883 5882 5882 5881 5881 5881 5880 5880 5879 5879 5878 5878 5878 5878 5878 5878 5878 5878 5878 5877 5877 5877 5877 5876 5876 5876 5876 5876 5876 5876 5876 5876 5876
5895 5895 5893 5893 5892 5891 5890 5889 5888 5888 5887 5886 5885 5884 5883 5883 5882 5881 5881 5881 5880 5880 5880 5879 5879 5878 5878 5877 5877 5877 5877 5877 5877 5877 5877 5877 5876 5876 5875 5875 5875 5875 5875 5875 5875 5874 5874 5875 5875
5894 5895 5893 5892 5891 5891 5889 5889 5888 5887 5886 5885 5884 5884 5883 5882 5881 5881 5880 5880 5880 5879 5879 5878 5878 5877 5877 5877 5876 5877 5876 5876 5876 5876 5876 5875 5875 5875 5874 5874 5874 5874 5873 5873 5873 5873 5873 5873 5873
5893 5893 5892 5891 5891 5890 5889 5888 5887 5886 5885 5885 5884 5883 5882 5881 5880 5880 5880 5879 5879 5879 5878 5878 5877 5877 5876 5876 5876 5876 5876 5875 5875 5875 5875 5874 5874 5874 5873 5873 5873 5872 5872 5872 5872 5872 5872 5872 5872
5892 5892 5891 5890 5889 5889 5888 5887 5886 5886 5885 5884 5883 5882 5881 5880 5880 5879 5879 5878 5878 5878 5877 5877 5876 5876 5876 5875 5875 5875 5875 5875 5874 5874 5874 5873 5873 5872 5872 5872 5871 5871 5871 5871 5871 5871 5871 5871 5870
5892 5891 5890 5889 5889 5888 5887 5887 5886 5885 5885 5883 5882 5881 5880 5880 5879 5878 5878 5877 5877 5877 5876 5876 5875 5875 5875 5874 5874 5874 5874 5874 5873 5873 5873 5872 5872 5871 5871 5871 5870 5870 5870 5869 5870 5870 5870 5869 5869
5891 5890 5889 5889 5888 5887 5887 5886 5885 5884 5883 5882 5881 5880 5880 5879 5878 5878 5877 5877 5876 5876 5875 5875 5874 5874 5874 5874 5873 5873 5873 5873 5872 5872 5872 5871 5871 5870 5870 5870 5870 5869 5869 5868 5868 5868 5868 5868 5867
5890 5889 5889 5888 5887 5887 5886 5885 5885 5884 5883 5882 5881 5880 5879 5878 5877 5877 5877 5876 5876 5875 5874 5874 5874 5873 5873 5873 5873 5873 5872 5872 5872 5871 5871 5870 5870 5869 5869 5869 5869 5869 5868 5868 5867 5867 5867 5866 5866
5889 5889 5889 5888 5887 5886 5886 5885 5884 5883 5882 5881 5880 5879 5878 5878 5877 5877 5876 5875 5875 5874 5874 5873 5873 5873 5873 5872 5872 5872 5871 5871 5871 5871 5870 5870 5869 5869 5869 5869 5868 5868 5867 5867 5866 5866 5865 5865 5864
5889 5889 5888 5887 5886 5886 5887 5885 5883 5882 5881 5880 5880 5879 5878 5877 5876 5876 5875 5875 5874 5874 5873 5873 5873 5872 5872 5872 5871 5871 5871 5870 5870 5870 5870 5870 5869 5869 5869 5868 5868 5867 5867 5866 5866 5865 5865 5864 5863
5888 5888 5887 5887 5886 5885 5885 5884 5883 5881 5880 5880 5879 5878 5877 5876 5876 5875 5874 5874 5874 5873 5873 5872 5872 5872 5871 5871 5870 5870 5870 5870 5870 5869 5869 5869 5869 5869 5868 5868 5867 5867 5866 5866 5865 5864 5864 5863 5862
5888 5887 5887 5886 5885 5884 5883 5882 5881 5880 5879 5879 5878 5877 5876 5875 5875 5874 5874 5873 5873 5872 5872 5872 5871 5871 5870 5870 5870 5870 5869 5869 5869 5869 5869 5868 5868 5868 5868 5867 5867 5866 5866 5865 5865 5864 5863 5862 5862
5887 5886 5885 5885 5884 5884 5882 5881 5880 5879 5878 5877 5877 5876 5875 5874 5874 5873 5873 5872 5872 5871 5871 5871 5870 5870 5870 5869 5869 5869 5868 5868 5868 5868 5868 5868 5868 5867 5867 5867 5866 5866 5866 5865 5864 5864 5863 5862 5861
5885 5885 5884 5883 5883 5882 5881 5880 5879 5878 5877 5876 5875 5874 5874 5873 5873 5872 5872 5871 5871 5870 5870 5870 5869 5869 5869 5868 5868 5868 5868 5867 5867 5867 5867 5867 5867 5867 5866 5866 5866 5865 5865 5865 5864 5863 5863 5862 5861
5884 5883 5882 5882 5882 5881 5881 5880 5878 5877 5876 5875 5874 5874 5873 5872 5872 5871 5871 5870 5870 5870 5869 5869 5868 5868 5868 5867 5867 5867 5867 5866 5866 5866 5866 5866 5866 5866 5865 5865 5865 5865 5865 5864 5864 5863 5862 5862 5861
5882 5882 5881 5881 5880 5880 5880 5879 5878 5876 5875 5874 5873 5872 5872 5871 5870 5870 5870 5869 5869 5869 5868 5868 5867 5867 5867 5866 5866 5866 5866 5866 5865 5865 5865 5865 5865 5865 5865 5864 5864 5864 5864 5863 5863 5862 5862 5861 5861
5881 5880 5880 5880 5879 5879 5878 5878 5877 5875 5874 5873 5872 5871 5870 5870 5869 5868 5868 5868 5868 5867 5867 5866 5866 5866 5866 5865 5865 5865 5865 5864 5864 5864 5864 5864 5863 5863 5863 5863 5863 5863 5863 5863 5862 5862 5861 5861 5860
5879 5879 5879 5878 5878 5878 5877 5877 5875 5873 5872 5871 5870 5869 5868 5868 5867 5867 5866 5866 5866 5866 5865 5865 5865 5864 5864 5864 5863 5863 5863 5863 5863 5863 5863 5863 5862 5862 5862 5862 5862 5862 5862 5862 5862 5861 5860 5860 5859
5878 5878 5878 5878 5877 5877 5876 5874 5874 5871 5870 5869 5868 5867 5866 5866 5865 5865 5865 5864 5864 5864 5864 5864 5863 5863 5863 5863 5862 5862 5862 5862 5862 5861 5861 5861 5861 5861 5861 5861 5861 5861 5861 5861 5860 5860 5859 5859 5858
5876 5877 5877 5877 5876 5875 5874 5872 5872 5870 5868 5867 5866 5865 5864 5864 5863 5863 5863 5862 5862 5862 5862 5862 5862 5861 5861 5861 5861 5861 5861 5861 5861 5860 5860 5860 5860 5860 5860 5860 5860 5860 5860 5860 5859 5858 5858 5857 5857
5873 5874 5874 5874 5873 5873 5872 5871 5870 5867 5866 5865 5864 5863 5862 5862 5861 5861 5861 5860 5860 5860 5860 5860 5860 5860 5859 5860 5860 5860 5860 5860 5859 5859 5859 5859 5859 5859 5859 5859 5859 5859 5858 5858 5858 5857 5857 5856 5855
5871 5871 5871 5871 5871 5870 5870 5868 5868 5865 5864 5863 5862 5860 5860 5859 5859 5859 5858 5858 5858 5858 5858 5858 5858 5858 5858 5858 5858 5858 5858 5858 5858 5858 5857 5857 5857 5857 5857 5858 5857 5857 5857 5857 5856 5856 5855 5855 5854
5868 5868 5868 5868 5868 5868 5867 5868 5865 5864 5862 5861 5860 5858 5858 5857 5856 5856 5856 5856 5856 5856 5856 5856 5856 5856 5856 5856 5856 5856 5856 5856 5856 5856 5856 5856 5856 5856 5856 5856 5856 5856 5855 5855 5855 5854 5854 5853 5852
5864 5865 5865 5865 5865 5864 5864 5866 5862 5861 5860 5858 5857 5856 5855 5855 5854 5854 5853 5853 5853 5853 5853 5853 5853 5854 5854 5854 5854 5854 5855 5855 5855 5854 5854 5854 5854 5854 5854 5855 5854 5854 5854 5853 5853 5852 5852 5851 5850